Regional Weather Roundup
Issued by NWS

Home | Current Version | Previous Version | Text Only | Print | Product List | Glossary On
Versions: 1 2 3 4 5 6 7 8 9 10 11 12 13 14 15 16 17 18 19 20 21 22 23 24 25 26 27 28 29 30 31 32 33 34 35 36 37 38 39 40 41 42 43 44 45 46 47 48 49 50
000
ASUS43 KDTX 220310
RWRMI
MICHIGAN HOURLY REGIONAL WEATHER ROUNDUP
NATIONAL WEATHER SERVICE DETROIT/PONTIAC MI
1100 PM EDT SUN SEP 21 2014

NOTE: "FAIR" INDICATES FEW OR NO CLOUDS BELOW 12,000 FEET WITH NO
SIGNIFICANT WEATHER AND/OR OBSTRUCTION TO VISIBILITY.

MIZ047>049-052>055-059>063-066>070-074>076-081>083-220400-
SOUTHEAST LOWER MICHIGAN

CITY           SKY/WX    TMP DP  RH WIND       PRES   REMARKS
ADRIAN         CLOUDY    54  46  74 NW14G21   30.01R
ALMA           CLOUDY    48  40  72 NW12      30.06R
ANN ARBOR      CLOUDY    50  43  77 NW14      30.00R
BAD AXE        CLOUDY    49  45  87 NW14G21   29.97R
DETROIT CITY   CLOUDY    54  45  71 NW10G18   29.98R
DETROIT        CLOUDY    51  45  79 NW13G24   29.99R
FLINT          CLOUDY    50  41  71 NW9       30.02R
GROSSE ILE     LGT RAIN  52  48  87 NW14G26   29.98R
HILLSDALE      CLOUDY    52  48  85 NW16G25   30.02R
HOWELL         CLOUDY    48  42  80 NW9G22    30.01R

CITY           SKY/WX    TMP DP  RH WIND       PRES   REMARKS
JACKSON        CLOUDY    48  45  89 NW8G18    30.03R
LAMBERTVILLE   CLOUDY    54  48  82 NW5       30.00R
LANSING        CLOUDY    48  37  65 N16G25    30.05R
LAPEER         NOT AVBL
MASON          CLOUDY    48  39  72 N16G22    30.04R
MONROE         CLOUDY    52  48  87 NW12G22   29.99R
MT. CLEMENS    LGT RAIN  50  50 100 N17       29.95R
PONTIAC        CLOUDY    50  45  83 NW12      29.98R
PORT HOPE        N/A     53  45  74 VRB5      29.95R
PORT HURON     CLOUDY    50  48  93 NW9G22    29.96R
TRI CITIES     CLOUDY    49  38  65 N20G25    30.04R
YPSILANTI      CLOUDY    54  44  69 NW12      30.00R
$$
MIZ043>046-050>051-056>058-064>065-071>073-077>080-220400-
SOUTHWEST LOWER MICHIGAN

CITY           SKY/WX    TMP DP  RH WIND       PRES   REMARKS
BATTLE CREEK   CLOUDY    50  41  71 N12       30.07R
BENTON HARBOR  MOCLDY    54  44  69 N8        30.10R
BIG RAPIDS     CLOUDY    46  42  84 N7G17     30.07R
COLDWATER      MOCLDY    51  42  71 NW16G23   30.05R
HOLLAND        CLOUDY    50  41  71 N7G17     30.12R
GRAND RAPIDS   CLOUDY    49  40  71 N10       30.09R
KALAMAZOO      CLEAR     48  40  73 NW16      30.09R
MARSHALL       CLOUDY    48  40  74 NW7       30.06R
MUSKEGON       MOCLDY    48  39  71 N9        30.11R
$$
MIZ016>042-220400-
NORTHERN LOWER MICHIGAN

CITY           SKY/WX    TMP DP  RH WIND       PRES   REMARKS
ALPENA         CLOUDY    48  39  71 NW12G21   30.00R
BEAVER ISLAND  PTCLDY    47  40  78 N10G18    30.08R
BELLAIRE       CLOUDY    48  40  73 NW3       30.06S
CADILLAC       CLOUDY    44  39  85 NW13G22   30.05R
CHARLEVOIX     CLOUDY    50  41  70 N13G23    30.09R
FRANKFORT      CLOUDY    49  38  66 N9G17     30.10S
GAYLORD        CLOUDY    45  37  73 NW9       30.03R
GRAYLING       CLOUDY    47  39  74 NW10      30.04R
HARBOR SPRINGS CLOUDY    49  40  73 CALM      30.05R
HOUGHTON LAKE  CLOUDY    46  38  73 N14G25    30.04R
MANISTEE       CLOUDY    48  37  66 N10G16    30.11R
OSCODA         CLOUDY    46  44  90 NW8       29.98R
PELLSTON       CLOUDY    48  41  76 NW12      30.05R
TRAVERSE CITY  CLOUDY    50  38  63 N12       30.07R
$$
MIZ007>008-015-220400-
EASTERN UPPER MICHIGAN

CITY           SKY/WX    TMP DP  RH WIND       PRES   REMARKS
KINROSS        CLOUDY    48  37  66 N10G16    30.03R
MACKINAC ISLAN CLOUDY    47  41  78 NW10G20   30.04R
NEWBERRY       PTCLDY    43  38  85 NW7       30.07R
S. S. MARIE    CLOUDY    48  34  58 N12       30.03R
$$
MIZ004>006-011>014-085-220400-
CENTRAL UPPER MICHIGAN

CITY           SKY/WX    TMP DP  RH WIND       PRES   REMARKS
MANISTIQUE     CLEAR     40  37  91 NW7       30.10R
ESCANABA       CLEAR     39  36  87 NW6       30.14R
MENOMINEE      CLEAR     39  37  93 CALM      30.14R
SAWYER-GWINN   CLEAR     39  36  89 NW7       30.13S
$$
MIZ001>003-009>011-084-220400-
WESTERN UPPER MICHIGAN

CITY           SKY/WX    TMP DP  RH WIND       PRES   REMARKS
IRON MOUNTAIN  CLEAR     39  36  89 CALM      30.14R
HOUGHTON       CLEAR     35  32  88 CALM      30.13F
COPPER HARBOR    N/A     44  39  82 NW5       30.14S
IRONWOOD       CLEAR     39  39 100 CALM      30.14S
$$

ABBREVIATIONS USED IN REMARKS
   TC - TEMPERATURE IN CELSIUS
  WCI - WIND CHILL INDEX
   HX - HEAT INDEX
  VSB - VISIBILITY




USA.gov is the U.S. government's official web portal to all federal, state and local government web resources and services.